Presure
246 247 250 241 259 254 255 258 267 266 263 261 264 275 278 282 288 304 310 337 240 216 213 205 187 164 134 155 124 123 131 159 132 172 153 136 126 133
251 243 250 243 250 248 199 250 169 259 254 258 273 275 294 327 411 388 309 318 343 185 226 216 210 208 206 198 177 162 134 140 129 137 148 127 126 130
245 248 250 250 248 251 248 252 250 256 264 265 274 459 514 513 389 387 349 334 320 340 256 194 214 216 211 170 188 166 154 192 138 135 132 115 134 136
265 267 249 248 244 243 245 249 246 251 259 259 445 440 457 546 479 360 374 357 311 348 328 307 238 225 212 202 180 135 202 148 120 123 145 142 166 125
313 283 275 260 253 266 273 246 246 250 257 257 427 415 441 438 443 460 341 357 337 134 339 315 306 253 229 223 207 177 146 180 126 163 132 151 143 142
333 300 287 290 288 294 276 272 269 241 250 263 354 404 403 425 425 425 465 340 334 325 326 338 313 299 279 238 153 217 210 212 123 122 171 132 158 164
247 272 272 308 297 282 287 275 256 242 249 268 325 336 376 387 384 386 429 333 329 329 330 328 133 322 299 178 293 232 226 221 204 206 210 170 134 149
267 244 238 264 242 317 302 267 268 257 241 250 273 319 326 368 369 387 394 474 341 312 336 334 325 327 312 310 288 291 294 240 230 220 132 195 212 213
248 247 258 223 239 277 281 304 280 257 248 246 259 278 331 314 145 358 370 389 372 326 320 340 332 328 331 314 275 303 290 294 171 165 204 221 172 156
251 238 222 247 235 250 262 274 228 282 260 246 246 254 275 306 311 343 356 347 368 378 334 313 308 325 334 336 324 312 303 296 285 290 294 267 236 180
239 218 247 245 231 238 246 249 270 292 273 253 242 252 248 274 303 309 319 377 354 341 352 364 353 314 295 325 324 318 185 310 303 297 291 291 292 144
226 214 225 246 246 225 245 239 246 265 285 277 252 241 244 245 265 273 278 302 325 237 294 343 342 342 337 309 310 312 310 309 304 296 293 295 300 185
234 229 236 246 233 250 209 226 259 241 260 273 283 253 242 240 242 245 261 277 291 269 226 142 144 362 372 367 323 299 298 319 323 322 319 311 294 281
246 233 237 233 229 235 237 247 248 227 248 259 262 282 260 246 239 243 240 245 270 276 275 236 208 195 144 316 322 338 355 376 389 375 342 328 176 143
245 241 243 229 239 235 231 236 246 262 226 267 252 259 284 268 244 239 240 239 242 251 272 272 279 281 276 144 143 264 327 316 347 371 389 395 380 320
250 247 221 249 230 237 237 237 236 245 252 256 257 241 269 260 289 254 244 238 238 239 237 257 263 270 271 270 280 286 294 170 144 144 308 283 204 166
256 254 255 255 241 242 241 234 238 239 243 255 252 227 207 194 264 263 289 251 242 238 236 239 245 254 253 260 258 266 261 274 266 278 287 277 237 156
253 258 259 237 248 224 252 244 241 239 238 247 246 244 172 209 212 232 179 296 265 250 238 237 236 245 242 242 246 257 263 260 257 261 264 263 269 268
275 270 282 239 262 253 217 256 250 248 241 243 251 269 253 259 270 244 251 261 282 285 255 246 239 237 232 237 237 233 239 237 254 259 258 258 259 258
310 289 283 288 241 235 255 262 246 244 254 254 248 252 271 255 258 276 252 250 267 268 274 285 258 249 242 235 231 234 232 228 230 236 238 240 249 254
333 355 275 341 330 311 251 261 262 246 250 265 267 263 270 262 258 260 269 257 256 256 269 265 270 278 289 248 239 236 232 231 233 233 235 236 235 235
413 369 298 316 295 352 281 260 255 256 253 267 294 283 269 257 263 255 265 262 261 263 254 253 253 275 263 273 280 283 250 241 236 235 233 234 232 228
310 310 310 347 364 355 255 274 280 276 277 311 293 289 269 287 272 260 265 244 265 246 262 274 262 277 272 278 261 267 274 290 296 274 253 248 241 240
Wind_Speed
56 59 55 62 47 50 55 55 52 54 57 67 73 78 81 86 92 90 94 92 113 110 107 104 98 84 60 73 51 51 56 66 60 68 60 50 55 52
56 60 57 61 58 59 51 58 49 58 58 71 75 82 89 90 82 90 96 96 94 88 115 112 111 114 109 97 85 74 57 60 58 58 56 56 53 53
53 54 58 59 61 62 62 61 62 63 64 72 78 60 49 54 85 83 87 97 94 97 117 98 116 117 112 84 91 76 71 93 62 57 56 45 57 58
56 59 55 57 58 58 59 60 61 64 62 67 47 46 42 39 45 82 82 88 93 92 98 103 126 122 112 106 93 67 105 70 51 50 62 60 75 55
46 52 58 59 59 64 64 56 60 60 62 66 47 42 33 25 28 36 75 80 84 55 90 100 102 126 122 118 110 88 71 94 60 84 63 60 65 60
33 40 42 45 49 51 60 60 61 45 56 63 60 42 32 19 18 25 33 73 80 82 85 86 98 101 114 124 78 117 114 117 54 48 92 64 74 73
38 38 39 40 44 45 47 51 52 46 53 56 57 53 41 25 12 19 26 68 71 77 82 85 56 95 96 69 100 125 125 124 107 113 118 89 68 72
38 42 43 44 43 42 42 44 47 52 43 47 48 52 47 33 23 18 19 36 66 68 73 81 83 87 94 92 95 97 101 129 129 124 61 107 120 118
39 43 42 45 45 44 42 42 42 46 47 45 45 45 44 42 52 19 19 20 49 64 66 71 76 78 87 90 86 92 93 94 69 74 112 126 93 81
45 41 45 43 47 46 45 45 42 41 44 42 41 40 42 42 38 24 19 17 27 36 60 60 61 65 72 76 86 88 89 91 95 94 94 115 135 95
44 51 45 45 45 45 46 45 44 43 41 43 39 40 34 37 38 32 24 22 25 28 31 45 56 63 63 67 71 77 67 87 89 91 93 94 95 63
51 55 51 47 46 46 46 46 46 42 40 39 41 37 37 31 31 27 25 24 14 29 37 38 45 53 60 62 65 71 76 78 83 88 90 91 89 72
53 53 48 50 47 52 48 47 48 46 41 38 37 39 37 34 32 28 27 23 19 16 32 53 51 31 45 52 62 64 67 73 78 83 86 88 85 83
59 54 52 51 51 49 48 50 52 47 48 40 37 37 38 37 35 33 29 27 16 16 13 24 39 45 55 18 23 29 35 46 51 62 81 82 67 64
61 57 55 57 53 52 50 49 52 56 48 49 43 39 35 37 40 36 34 31 30 25 14 13 12 12 15 61 61 27 14 17 20 29 33 37 38 38
67 64 66 58 59 56 55 52 51 52 53 51 48 46 39 38 33 40 41 36 34 33 30 23 17 11 12 14 10 14 12 56 65 65 15 28 50 60
72 69 66 63 60 59 58 57 55 54 52 57 52 50 45 44 38 39 37 44 42 39 36 35 32 26 24 19 21 18 21 16 19 13 16 20 36 65
76 74 72 65 66 58 63 61 58 58 56 55 56 56 52 50 49 42 49 36 47 47 44 42 39 36 35 33 29 26 24 25 26 25 24 27 25 25
82 79 77 67 72 68 54 66 63 61 60 59 59 63 57 52 52 52 49 43 38 41 51 49 47 45 41 41 41 41 38 36 32 31 32 33 33 32
80 81 79 80 65 63 69 71 65 63 66 66 62 62 64 58 54 53 54 52 44 43 45 44 53 53 51 50 47 46 47 46 45 43 42 41 41 39
70 69 66 76 80 80 68 70 71 67 67 69 69 65 63 64 59 56 54 53 51 50 49 50 49 49 48 58 58 57 56 54 52 52 52 52 51 49
57 63 64 67 71 70 73 71 71 71 70 70 65 67 66 65 65 59 59 58 55 54 55 56 57 54 57 55 53 55 65 66 64 63 62 61 60 58
62 60 60 60 59 62 66 71 71 69 69 60 63 66 65 65 65 62 62 60 61 60 59 60 59 59 59 60 61 61 61 56 59 72 74 75 73 70
Wind_Direction
278 279 273 276 274 269 269 271 274 272 272 270 270 273 265 260 257 256 249 248 242 248 249 249 257 257 263 258 257 258 255 261 261 261 265 258 265 262
279 280 277 280 276 277 275 276 276 278 276 277 279 272 271 261 254 247 246 244 243 248 242 244 246 250 254 256 258 260 260 256 261 258 257 262 264 265
279 280 280 281 280 282 283 284 285 287 291 290 290 299 284 262 248 245 241 242 241 240 239 244 246 245 248 256 254 259 260 260 265 261 257 268 260 262
284 283 283 283 283 283 284 286 290 293 298 299 315 317 303 261 248 239 237 238 239 241 237 237 239 243 248 247 254 260 255 258 266 270 259 261 263 264
293 285 284 284 288 288 287 288 291 298 304 306 332 328 314 288 246 237 235 234 236 257 240 238 237 237 243 243 248 252 261 255 263 261 266 262 258 255
320 302 301 300 295 292 289 290 291 306 307 311 342 343 345 322 267 243 232 233 233 238 240 240 239 237 238 241 251 247 249 252 264 265 259 268 264 262
311 320 314 322 307 301 297 294 295 307 310 317 346 349 350 340 312 283 249 229 232 236 239 241 253 241 240 248 242 243 244 247 253 255 255 261 265 260
320 310 308 318 305 321 311 300 296 300 313 318 330 350 352 348 323 290 273 227 230 238 235 238 240 241 245 243 240 242 242 243 246 250 262 256 258 260
318 314 313 298 308 328 318 316 302 301 310 318 325 339 351 351 257 318 289 256 230 237 239 240 241 242 242 244 246 245 244 245 253 255 250 252 257 260
318 306 300 308 305 312 319 323 307 304 305 315 320 327 343 353 350 343 294 272 253 242 242 244 245 246 246 245 245 246 246 246 245 246 247 248 250 257
307 294 312 308 301 306 311 313 322 323 306 308 314 319 323 341 354 347 343 275 263 250 252 250 249 247 247 248 246 247 251 248 248 248 249 250 250 259
289 295 292 308 306 298 307 307 311 317 323 305 304 309 313 316 333 339 345 345 331 262 256 256 252 249 249 250 250 249 248 247 247 249 252 254 255 258
290 290 295 305 293 310 288 299 311 307 310 315 307 297 302 305 306 311 328 350 342 319 262 251 251 258 256 254 252 252 252 252 250 250 250 251 250 251
289 286 289 287 288 293 298 302 303 298 303 303 303 304 290 294 297 299 296 304 326 331 319 272 258 253 251 254 251 253 257 257 256 254 253 252 258 262
281 281 283 284 286 286 286 291 299 302 293 300 296 295 306 282 286 287 290 288 292 297 309 300 325 316 290 251 252 251 253 237 260 254 248 242 238 245
279 279 284 280 283 282 284 284 286 291 295 293 293 290 293 284 298 277 282 280 282 281 281 282 275 268 276 283 282 279 265 253 254 255 242 250 256 259
276 276 276 277 278 275 276 280 280 282 284 290 285 285 274 271 279 282 285 275 278 277 277 277 277 272 267 258 259 259 250 252 243 247 244 235 252 261
279 276 274 280 275 280 273 274 275 277 278 280 283 278 270 272 275 273 266 293 267 270 273 274 274 273 272 271 268 260 252 250 247 246 245 239 241 242
274 275 271 276 271 273 281 270 272 273 275 275 277 279 274 275 279 273 272 271 283 272 264 267 269 270 269 271 272 272 270 266 260 255 250 247 244 241
268 269 271 269 276 278 274 270 274 275 272 272 272 272 272 269 272 277 267 268 276 273 271 268 263 263 265 266 267 264 265 266 268 266 264 262 258 253
268 268 273 265 265 265 273 270 271 273 272 270 270 269 265 269 268 269 268 265 266 269 272 266 267 270 269 261 265 266 270 271 268 267 266 264 263 263
273 272 273 269 269 265 267 270 272 271 270 269 262 262 265 267 267 266 270 269 266 271 266 265 267 273 265 266 266 265 260 263 267 269 269 268 268 270
272 271 269 269 268 267 272 268 266 266 267 253 257 259 263 259 263 266 269 265 267 264 269 272 266 271 271 270 264 265 265 266 264 260 261 264 265 266